Location: Clarks Summit,Pa.
(41.5000°N, 75.6000°W)
Time: 02:14:31
(UTC-04:00)

Hubble Space Telescope - Visible Passes

Search period start: 19 March 2019 00:00
Search period end: 29 March 2019 00:00
Orbit: 537 x 540 km, 28.5° (Epoch: 17 March)

Date Brightness Start Highest point End Pass type
(mag) Time Alt. Az. Time Alt. Az. Time Alt. Az.
25 Mar 3.2 20:53:19 10° S 20:53:49 11° S 20:53:49 11° S visible
26 Mar 3.0 20:42:15 10° SSW 20:43:49 12° S 20:44:06 12° SSE visible
27 Mar 2.9 20:31:22 10° SSW 20:33:12 13° S 20:34:20 12° SSE visible
28 Mar 3.0 20:20:36 10° SSW 20:22:35 13° S 20:24:32 10° SSE visible
